TimeEST,TemperatureF,Dew PointF,Humidity,Sea Level PressureIn,VisibilityMPH,Wind Direction,Wind SpeedMPH,Gust SpeedMPH,PrecipitationIn,Events,Conditions,WindDirDegrees,DateUTC
12:03 AM,35.6,23.0,60,30.23,10.0,SW,8.1,-,N/A,,Overcast,220,2013-12-26 05:03:00
12:13 AM,35.6,23.0,60,30.23,10.0,SW,8.1,-,N/A,,Overcast,230,2013-12-26 05:13:00
12:58 AM,33.1,23.9,69,30.26,10.0,WSW,8.1,-,N/A,,Clear,240,2013-12-26 05:58:00
1:48 AM,32.0,24.8,75,30.23,10.0,WSW,8.1,-,N/A,,Mostly Cloudy,240,2013-12-26 06:48:00
1:58 AM,33.3,25.3,73,30.27,10.0,WSW,6.9,-,N/A,,Mostly Cloudy,240,2013-12-26 06:58:00
2:58 AM,34.2,26.1,72,30.28,10.0,WSW,8.1,-,N/A,,Overcast,240,2013-12-26 07:58:00
3:58 AM,34.2,27.1,75,30.30,10.0,WSW,10.4,-,N/A,,Overcast,250,2013-12-26 08:58:00
4:03 AM,33.8,26.6,75,30.27,10.0,West,13.8,17.3,N/A,,Overcast,270,2013-12-26 09:03:00
4:33 AM,32.0,26.6,80,30.27,10.0,West,12.7,-,N/A,,Overcast,260,2013-12-26 09:33:00
4:53 AM,32.0,26.6,80,30.28,10.0,West,11.5,-,N/A,,Overcast,270,2013-12-26 09:53:00
4:58 AM,33.4,26.4,75,30.31,10.0,West,11.5,-,N/A,,Overcast,270,2013-12-26 09:58:00
5:13 AM,32.0,26.6,80,30.28,10.0,WNW,9.2,19.6,N/A,,Overcast,290,2013-12-26 10:13:00
5:58 AM,32.5,25.9,76,30.33,10.0,West,5.8,-,N/A,,Mostly Cloudy,280,2013-12-26 10:58:00
6:13 AM,32.0,24.8,75,30.31,10.0,West,6.9,-,N/A,,Scattered Clouds,280,2013-12-26 11:13:00
6:58 AM,28.8,24.4,84,30.35,10.0,WSW,4.6,-,N/A,,Partly Cloudy,250,2013-12-26 11:58:00
7:53 AM,28.4,24.8,86,30.34,10.0,WSW,3.5,-,N/A,,Mostly Cloudy,250,2013-12-26 12:53:00
7:58 AM,28.4,24.8,86,30.37,10.0,WSW,3.5,-,N/A,,Mostly Cloudy,250,2013-12-26 12:58:00
8:08 AM,30.2,26.6,86,30.35,10.0,WSW,4.6,-,N/A,,Overcast,240,2013-12-26 13:08:00
8:58 AM,31.5,26.2,81,30.39,10.0,WSW,4.6,-,N/A,,Overcast,250,2013-12-26 13:58:00
9:13 AM,32.0,26.6,80,30.36,10.0,WSW,5.8,-,N/A,,Scattered Clouds,240,2013-12-26 14:13:00
9:58 AM,33.6,25.9,73,30.41,10.0,West,9.2,-,N/A,,Scattered Clouds,270,2013-12-26 14:58:00
10:13 AM,32.0,26.6,80,30.39,10.0,WSW,5.8,-,N/A,,Mostly Cloudy,250,2013-12-26 15:13:00
10:23 AM,33.8,26.6,75,30.39,10.0,West,8.1,-,N/A,,Scattered Clouds,260,2013-12-26 15:23:00
10:53 AM,35.6,26.6,70,30.40,10.0,West,5.8,-,N/A,,Mostly Cloudy,270,2013-12-26 15:53:00
10:58 AM,36.3,25.9,66,30.43,10.0,WSW,5.8,-,N/A,,Mostly Cloudy,240,2013-12-26 15:58:00
11:18 AM,37.4,26.6,65,30.39,10.0,SW,4.6,-,N/A,,Scattered Clouds,220,2013-12-26 16:18:00
11:58 AM,37.9,25.7,61,30.41,10.0,SW,5.8,-,N/A,,Partly Cloudy,220,2013-12-26 16:58:00
12:58 PM,39.4,24.6,56,30.39,10.0,Variable,2.3,-,N/A,,Clear,0,2013-12-26 17:58:00
1:58 PM,41.4,25.0,52,30.38,10.0,SW,6.9,-,N/A,,Clear,230,2013-12-26 18:58:00
2:58 PM,42.6,25.2,50,30.37,10.0,Variable,5.8,-,N/A,,Clear,0,2013-12-26 19:58:00
3:58 PM,42.4,24.3,49,30.37,10.0,WSW,5.8,-,N/A,,Clear,240,2013-12-26 20:58:00
4:58 PM,39.7,25.0,56,30.38,10.0,West,5.8,-,N/A,,Clear,260,2013-12-26 21:58:00
5:58 PM,36.7,23.9,60,30.39,10.0,South,2.3,-,N/A,,Clear,180,2013-12-26 22:58:00
6:58 PM,31.8,23.9,73,30.39,10.0,SSW,2.3,-,N/A,,Clear,210,2013-12-26 23:58:00
7:58 PM,31.3,23.7,74,30.40,10.0,SSE,1.2,-,N/A,,Clear,160,2013-12-27 00:58:00
8:58 PM,30.2,23.4,76,30.38,10.0,Calm,Calm,-,N/A,,Clear,0,2013-12-27 01:58:00
9:58 PM,29.5,23.5,79,30.39,10.0,South,3.5,-,N/A,,Clear,190,2013-12-27 02:58:00
10:58 PM,28.4,22.5,78,30.38,10.0,South,4.6,-,N/A,,Clear,180,2013-12-27 03:58:00
11:58 PM,28.4,22.3,78,30.38,10.0,Calm,Calm,-,N/A,,Clear,0,2013-12-27 04:58:00